Date String (YYYY-MM-DD hh:mm:ss) UTC,Instrument flags,Ambient pressure (hPa),Sample flow (lpm),Bypass flow (lpm),Sample temperature (°C),Ambient temperature (°C),ASC tube jacket temperature (°C),LED temperature (°C),Box temperature (°C),Sample RH (%),Span deviation,Mass concentration (μg/m³),Mass concentration (μg/m³),Mass concentration (μg/m³)
DateTimeUTC,F1_M11,P_M11,Q1_M11,Q2_M11,T1_M11,T2_M11,T3_M11,T4_M11,T5_M11,U1_M11,ZSPAN_M11,X0_M11,X2_M11,X1_M11
2021-10-21 15:00:00,,0833.0,5.01,0.00,24.7,23.8,00.0,33.8,26.5,14.5,0002.5,0007.88,0003.64,0003.09
2021-10-21 15:01:00,,0833.0,4.99,0.00,24.7,23.8,00.0,33.8,26.5,14.4,0002.6,0007.82,0003.62,0003.08
2021-10-21 15:02:00,,0833.1,5.00,0.00,24.7,23.8,00.0,33.8,26.5,14.5,0002.7,0007.90,0003.63,0003.07
2021-10-21 15:03:00,,0833.0,5.01,0.00,24.7,23.8,00.0,33.8,26.5,14.5,0002.9,0008.00,0003.61,0003.04
2021-10-21 15:04:00,,0833.0,5.00,0.00,24.7,23.8,00.0,33.8,26.6,14.5,0002.9,0008.01,0003.60,0003.02
2021-10-21 15:05:00,,0833.0,5.00,0.00,24.7,23.8,00.0,33.8,26.6,14.4,0002.5,0007.89,0003.55,0002.98
2021-10-21 15:06:00,,0833.1,5.00,0.00,24.7,23.9,00.0,33.8,26.6,14.4,0002.8,0008.48,0003.54,0002.95
2021-10-21 15:07:00,,0833.1,5.01,0.00,24.7,23.9,00.0,33.8,26.6,14.3,0003.1,0008.39,0003.54,0002.91
2021-10-21 15:08:00,,0833.1,4.99,0.00,24.7,23.9,00.0,33.8,26.6,14.4,0003.1,0008.39,0003.53,0002.87
2021-10-21 15:09:00,,0833.1,5.01,0.00,24.7,23.9,00.0,33.8,26.6,14.4,0003.2,0008.57,0003.57,0002.85
2021-10-21 15:10:00,,0833.2,4.98,0.00,24.7,23.9,00.0,33.8,26.6,14.4,0003.4,0008.60,0003.57,0002.84
2021-10-21 15:11:00,,0833.1,5.01,0.00,24.7,23.9,00.0,33.8,26.6,14.4,0004.0,0008.68,0003.59,0002.84
2021-10-21 15:12:00,,0833.1,5.00,0.00,24.7,23.9,00.0,33.8,26.6,14.4,0004.6,0008.59,0003.58,0002.83
2021-10-21 15:13:00,,0833.2,5.01,0.00,24.7,23.9,00.0,33.8,26.6,14.5,0004.8,0008.40,0003.55,0002.81
2021-10-21 15:14:00,,0833.1,5.00,0.00,24.8,23.9,00.0,33.8,26.6,14.8,0004.2,0008.37,0003.58,0002.80
2021-10-21 15:15:00,,0833.1,4.99,0.00,24.8,23.9,00.0,33.8,26.7,14.8,0000.0,0008.48,0003.60,0002.78
2021-10-21 15:16:00,,0833.1,5.01,0.00,24.8,23.9,00.0,33.8,26.7,14.8,0000.0,0008.25,0003.64,0002.78
2021-10-21 15:17:00,,0833.2,5.00,0.00,24.8,23.9,00.0,33.8,26.6,14.7,0000.0,0007.42,0003.62,0002.77
2021-10-21 15:18:00,,0833.2,4.99,0.00,24.7,23.9,00.0,33.8,26.6,14.6,0000.0,0007.24,0003.61,0002.80
2021-10-21 15:19:00,,0833.2,5.02,0.00,24.7,23.9,00.0,33.8,26.6,14.5,0000.0,0007.69,0003.62,0002.80
2021-10-21 15:20:00,,0833.2,4.99,0.00,24.7,23.9,00.0,33.8,26.6,14.5,0000.0,0007.92,0003.58,0002.80
2021-10-21 15:21:00,,0833.3,5.00,0.00,24.8,23.9,00.0,33.8,26.6,14.5,0000.0,0008.11,0003.58,0002.82
2021-10-21 15:22:00,,0833.2,5.00,0.00,24.8,23.9,00.0,33.8,26.6,14.5,0000.0,0008.51,0003.57,0002.82
2021-10-21 15:23:00,,0833.3,5.00,0.00,24.8,23.9,00.0,33.8,26.7,14.4,0000.0,0009.24,0003.59,0002.80
2021-10-21 15:24:00,,0833.2,5.01,0.00,24.8,23.9,00.0,33.8,26.6,14.4,0000.0,0010.08,0003.60,0002.78
2021-10-21 15:25:00,,0833.2,5.01,0.00,24.8,23.9,00.0,33.8,26.6,14.4,0000.0,0010.43,0003.63,0002.79
2021-10-21 15:26:00,,0833.2,5.00,0.00,24.8,23.9,00.0,33.8,26.6,14.5,0000.0,0010.53,0003.64,0002.81
2021-10-21 15:27:00,,0833.2,4.98,0.00,24.8,23.9,00.0,33.8,26.6,14.5,0000.0,0010.58,0003.65,0002.83
2021-10-21 15:28:00,,0833.3,5.01,0.00,24.8,24.0,00.0,33.8,26.6,14.5,0001.4,0010.68,0003.67,0002.84
2021-10-21 15:29:00,,0833.3,5.01,0.00,24.8,24.0,00.0,33.8,26.6,14.4,0002.6,0010.91,0003.68,0002.82
2021-10-21 15:30:00,,0833.3,5.00,0.00,24.8,24.0,00.0,33.8,26.6,14.4,0002.8,0010.68,0003.69,0002.84
2021-10-21 15:31:00,,0833.2,5.01,0.00,24.8,24.0,00.0,33.8,26.6,14.5,0003.2,0010.31,0003.74,0002.90
2021-10-21 15:32:00,,0833.3,5.00,0.00,24.8,24.0,00.0,33.8,26.6,14.5,0003.1,0010.26,0003.75,0002.92
2021-10-21 15:33:00,,0833.2,5.01,0.00,24.8,24.0,00.0,33.8,26.6,14.4,0002.6,0010.26,0003.80,0002.97
2021-10-21 15:34:00,,0833.3,4.99,0.00,24.8,24.0,00.0,33.8,26.7,14.5,0001.8,0009.87,0003.85,0003.04
2021-10-21 15:35:00,,0833.2,4.99,0.00,24.8,24.0,00.0,33.8,26.7,14.5,0001.7,0009.60,0003.87,0003.10
2021-10-21 15:36:00,,0833.2,5.00,0.00,24.8,24.0,00.0,33.8,26.7,14.5,0002.3,0009.25,0003.87,0003.13
2021-10-21 15:37:00,,0833.3,5.00,0.00,24.8,24.0,00.0,33.9,26.7,14.5,0002.2,0009.02,0003.88,0003.16
2021-10-21 15:38:00,,0833.3,5.00,0.00,24.8,24.0,00.0,33.9,26.7,14.5,0002.5,0009.02,0003.90,0003.18
2021-10-21 15:39:00,,0833.3,5.00,0.00,24.8,24.0,00.0,33.9,26.7,14.5,0002.3,0008.97,0003.92,0003.22
2021-10-21 15:40:00,,0833.3,5.00,0.00,24.9,24.0,00.0,33.9,26.7,14.5,0003.3,0008.84,0003.97,0003.27
2021-10-21 15:41:00,,0833.4,5.00,0.00,24.9,24.0,00.0,33.9,26.7,14.5,0003.2,0008.78,0003.98,0003.29
2021-10-21 15:42:00,,0833.4,4.99,0.00,24.9,24.1,00.0,33.9,26.7,14.5,0003.1,0008.71,0003.97,0003.29
2021-10-21 15:43:00,,0833.5,5.01,0.00,24.9,24.1,00.0,33.9,26.7,14.4,0003.0,0008.91,0003.99,0003.30
2021-10-21 15:44:00,,0833.4,4.99,0.00,24.9,24.1,00.0,33.9,26.7,14.4,0003.2,0008.63,0003.93,0003.30
2021-10-21 15:45:00,,0833.4,5.00,0.00,24.9,24.1,00.0,33.9,26.7,14.4,0003.5,0008.35,0003.87,0003.30
2021-10-21 15:46:00,,0833.5,5.00,0.00,24.9,24.1,00.0,33.9,26.7,14.4,0003.7,0007.79,0003.85,0003.31
2021-10-21 15:47:00,,0833.5,4.99,0.00,24.9,24.1,00.0,33.9,26.7,14.2,0003.5,0007.84,0003.82,0003.29
2021-10-21 15:48:00,,0833.4,5.01,0.00,24.9,24.1,00.0,33.9,26.8,14.2,0003.6,0007.73,0003.76,0003.26
2021-10-21 15:49:00,,0833.4,5.01,0.00,24.9,24.1,00.0,33.9,26.8,14.2,0003.7,0007.68,0003.73,0003.23
2021-10-21 15:50:00,,0833.4,4.98,0.00,24.9,24.1,00.0,33.9,26.7,14.1,0003.9,0007.75,0003.72,0003.20
2021-10-21 15:51:00,,0833.3,5.02,0.00,24.9,24.1,00.0,33.9,26.7,14.1,0004.0,0007.75,0003.69,0003.16
2021-10-21 15:52:00,,0833.3,5.00,0.00,24.9,24.1,00.0,33.9,26.7,14.0,0004.1,0007.83,0003.68,0003.12
2021-10-21 15:53:00,,0833.3,4.99,0.00,24.9,24.1,00.0,33.9,26.7,14.0,0004.1,0007.75,0003.62,0003.05
2021-10-21 15:54:00,,0833.3,5.01,0.00,24.9,24.1,00.0,33.9,26.7,14.1,0000.0,0007.62,0003.58,0002.99
2021-10-21 15:55:00,,0833.4,4.98,0.00,24.9,24.1,00.0,33.9,26.7,14.1,0000.0,0007.74,0003.60,0002.96
2021-10-21 15:56:00,,0833.4,5.01,0.00,24.9,24.1,00.0,33.9,26.7,14.1,0000.0,0007.59,0003.60,0002.92
2021-10-21 15:57:00,,0833.4,5.00,0.00,24.9,24.1,00.0,33.9,26.7,14.0,0000.0,0007.66,0003.58,0002.85
2021-10-21 15:58:00,,0833.5,5.00,0.00,24.9,24.1,00.0,33.9,26.7,14.0,0000.0,0008.23,0003.55,0002.82
2021-10-21 15:59:00,,0833.4,5.00,0.00,24.9,24.1,00.0,33.9,26.7,14.0,0000.0,0008.52,0003.54,0002.82
